Year,Month,Day,Hour,Minute,Value (Times are PST for temperature in C)
2017,06,22,00,00,13.70
2017,06,22,00,01,13.70
2017,06,22,00,02,13.60
2017,06,22,00,03,13.60
2017,06,22,00,04,13.60
2017,06,22,00,05,13.60
2017,06,22,00,06,13.60
2017,06,22,00,07,13.60
2017,06,22,00,08,13.60
2017,06,22,00,09,13.60
2017,06,22,00,10,13.50
2017,06,22,00,11,13.50
2017,06,22,00,12,13.50
2017,06,22,00,13,13.50
2017,06,22,00,14,13.50
2017,06,22,00,15,13.50
2017,06,22,00,16,13.40
2017,06,22,00,17,13.40
2017,06,22,00,18,13.40
2017,06,22,00,19,13.40
2017,06,22,00,20,13.40
2017,06,22,00,21,13.40
2017,06,22,00,22,13.30
2017,06,22,00,23,13.30
2017,06,22,00,24,13.30
2017,06,22,00,25,13.30
2017,06,22,00,26,13.30
2017,06,22,00,27,13.30
2017,06,22,00,28,13.30
2017,06,22,00,29,13.30
2017,06,22,00,30,13.30
2017,06,22,00,31,13.30
2017,06,22,00,32,13.30
2017,06,22,00,33,13.30
2017,06,22,00,34,13.30
2017,06,22,00,35,13.20
2017,06,22,00,36,13.20
2017,06,22,00,37,13.20
2017,06,22,00,38,13.20
2017,06,22,00,39,13.20
2017,06,22,00,40,13.20
2017,06,22,00,41,13.10
2017,06,22,00,42,13.10
2017,06,22,00,43,13.10
2017,06,22,00,44,13.10
2017,06,22,00,45,13.10
2017,06,22,00,46,13.10
2017,06,22,00,47,13.10
2017,06,22,00,48,13.10
2017,06,22,00,49,13.10
2017,06,22,00,50,13.10
2017,06,22,00,51,13.10
2017,06,22,00,52,13.00
2017,06,22,00,53,13.00
2017,06,22,00,54,13.00
2017,06,22,00,55,13.10
2017,06,22,00,56,13.10
2017,06,22,00,57,13.10
2017,06,22,00,58,13.10
2017,06,22,00,59,13.10
2017,06,22,01,00,13.10
2017,06,22,01,01,13.10
2017,06,22,01,02,13.10
2017,06,22,01,03,13.10
2017,06,22,01,04,13.10
2017,06,22,01,05,13.10
2017,06,22,01,06,13.10
2017,06,22,01,07,13.10
2017,06,22,01,08,13.10
2017,06,22,01,09,13.10
2017,06,22,01,10,13.10
2017,06,22,01,11,13.00
2017,06,22,01,12,13.00
2017,06,22,01,13,13.00
2017,06,22,01,14,13.00
2017,06,22,01,15,13.00
2017,06,22,01,16,12.90
2017,06,22,01,17,12.90
2017,06,22,01,18,12.90
2017,06,22,01,19,12.90
2017,06,22,01,20,12.90
2017,06,22,01,21,12.90
2017,06,22,01,22,12.90
2017,06,22,01,23,12.80
2017,06,22,01,24,12.80
2017,06,22,01,25,12.80
2017,06,22,01,26,12.80
2017,06,22,01,27,12.80
2017,06,22,01,28,12.80
2017,06,22,01,29,12.80
2017,06,22,01,30,12.80
2017,06,22,01,31,12.70
2017,06,22,01,32,12.70
2017,06,22,01,33,12.70
2017,06,22,01,34,12.70
2017,06,22,01,35,12.70
2017,06,22,01,36,12.70
2017,06,22,01,37,12.60
2017,06,22,01,38,12.60
2017,06,22,01,39,12.60
2017,06,22,01,40,12.60
2017,06,22,01,41,12.60
2017,06,22,01,42,12.60
2017,06,22,01,43,12.60
2017,06,22,01,44,12.60
2017,06,22,01,45,12.60
2017,06,22,01,46,12.60
2017,06,22,01,47,12.50
2017,06,22,01,48,12.50
2017,06,22,01,49,12.50
2017,06,22,01,50,12.50
2017,06,22,01,51,12.50
2017,06,22,01,52,12.50
2017,06,22,01,53,12.40
2017,06,22,01,54,12.40
2017,06,22,01,55,12.40
2017,06,22,01,56,12.40
2017,06,22,01,57,12.40
2017,06,22,01,58,12.40
2017,06,22,01,59,12.40
2017,06,22,02,00,12.40
2017,06,22,02,01,12.40
2017,06,22,02,02,12.40
2017,06,22,02,03,12.40
2017,06,22,02,04,12.40
2017,06,22,02,05,12.40
2017,06,22,02,06,12.40
2017,06,22,02,07,12.40
2017,06,22,02,08,12.30
2017,06,22,02,09,12.30
2017,06,22,02,10,12.30
2017,06,22,02,11,12.30
2017,06,22,02,12,12.30
2017,06,22,02,13,12.30
2017,06,22,02,14,12.30
2017,06,22,02,15,12.30
2017,06,22,02,16,12.30
2017,06,22,02,17,12.30
2017,06,22,02,18,12.30
2017,06,22,02,19,12.30
2017,06,22,02,20,12.30
2017,06,22,02,21,12.30
2017,06,22,02,22,12.30
2017,06,22,02,23,12.30
2017,06,22,02,24,12.30
2017,06,22,02,25,12.20
2017,06,22,02,26,12.20
2017,06,22,02,27,12.20
2017,06,22,02,28,12.20
2017,06,22,02,29,12.20
2017,06,22,02,30,12.20
2017,06,22,02,31,12.20
2017,06,22,02,32,12.10
2017,06,22,02,33,12.10
2017,06,22,02,34,12.10
2017,06,22,02,35,12.10
2017,06,22,02,36,12.10
2017,06,22,02,37,12.10
2017,06,22,02,38,12.10
2017,06,22,02,39,12.10
2017,06,22,02,40,12.10
2017,06,22,02,41,12.10
2017,06,22,02,42,12.10
2017,06,22,02,43,12.10
2017,06,22,02,44,12.00
2017,06,22,02,45,12.00
2017,06,22,02,46,12.00
2017,06,22,02,47,12.00
2017,06,22,02,48,12.00
2017,06,22,02,49,12.00
2017,06,22,02,50,12.00
2017,06,22,02,51,11.90
2017,06,22,02,52,11.90
2017,06,22,02,53,11.90
2017,06,22,02,54,11.90
2017,06,22,02,55,11.90
2017,06,22,02,56,11.90
2017,06,22,02,57,11.90
2017,06,22,02,58,11.80
2017,06,22,02,59,11.80
2017,06,22,03,00,11.80
2017,06,22,03,01,11.80
2017,06,22,03,02,11.80
2017,06,22,03,03,11.80
2017,06,22,03,04,11.80
2017,06,22,03,05,11.70
2017,06,22,03,06,11.70
2017,06,22,03,07,11.70
2017,06,22,03,08,11.70
2017,06,22,03,09,11.70
2017,06,22,03,10,11.70
2017,06,22,03,11,11.70
2017,06,22,03,12,11.70
2017,06,22,03,13,11.70
2017,06,22,03,14,11.80
2017,06,22,03,15,11.80
2017,06,22,03,16,11.80
2017,06,22,03,17,11.80
2017,06,22,03,18,11.80
2017,06,22,03,19,11.80
2017,06,22,03,20,11.80
2017,06,22,03,21,11.80
2017,06,22,03,22,11.80
2017,06,22,03,23,11.80
2017,06,22,03,24,11.80
2017,06,22,03,25,11.70
2017,06,22,03,26,11.70
2017,06,22,03,27,11.70
2017,06,22,03,28,11.70
2017,06,22,03,29,11.70
2017,06,22,03,30,11.70
2017,06,22,03,31,11.70
2017,06,22,03,32,11.70
2017,06,22,03,33,11.70
2017,06,22,03,34,11.70
2017,06,22,03,35,11.70
2017,06,22,03,36,11.70
2017,06,22,03,37,11.70
2017,06,22,03,38,11.70
2017,06,22,03,39,11.70
2017,06,22,03,40,11.70
2017,06,22,03,41,11.70
2017,06,22,03,42,11.70
2017,06,22,03,43,11.70
2017,06,22,03,44,11.70
2017,06,22,03,45,11.70
2017,06,22,03,46,11.70
2017,06,22,03,47,11.70
2017,06,22,03,48,11.60
2017,06,22,03,49,11.60
2017,06,22,03,50,11.70
2017,06,22,03,51,11.70
2017,06,22,03,52,11.60
2017,06,22,03,53,11.60
2017,06,22,03,54,11.60
2017,06,22,03,55,11.60
2017,06,22,03,56,11.60
2017,06,22,03,57,11.60
2017,06,22,03,58,11.60
2017,06,22,03,59,11.60
2017,06,22,04,00,11.50
2017,06,22,04,01,11.50
2017,06,22,04,02,11.50
2017,06,22,04,03,11.50
2017,06,22,04,04,11.50
2017,06,22,04,05,11.50
2017,06,22,04,06,11.50
2017,06,22,04,07,11.40
2017,06,22,04,08,11.40
2017,06,22,04,09,11.40
2017,06,22,04,10,11.40
2017,06,22,04,11,11.40
2017,06,22,04,12,11.40
2017,06,22,04,13,11.40
2017,06,22,04,14,11.30
2017,06,22,04,15,11.30
2017,06,22,04,16,11.30
2017,06,22,04,17,11.30
2017,06,22,04,18,11.30
2017,06,22,04,19,11.30
2017,06,22,04,20,11.30
2017,06,22,04,21,11.30
2017,06,22,04,22,11.30
2017,06,22,04,23,11.20
2017,06,22,04,24,11.20
2017,06,22,04,25,11.20
2017,06,22,04,26,11.20
2017,06,22,04,27,11.20
2017,06,22,04,28,11.10
2017,06,22,04,29,11.10
2017,06,22,04,30,11.10
2017,06,22,04,31,11.10
2017,06,22,04,32,11.10
2017,06,22,04,33,11.10
2017,06,22,04,34,11.10
2017,06,22,04,35,11.00
2017,06,22,04,36,11.00
2017,06,22,04,37,11.00
2017,06,22,04,38,11.00
2017,06,22,04,39,11.00
2017,06,22,04,40,11.00
2017,06,22,04,41,10.90
2017,06,22,04,42,10.90
2017,06,22,04,43,10.90
2017,06,22,04,44,10.90
2017,06,22,04,45,10.90
2017,06,22,04,46,10.90
2017,06,22,04,47,10.90
2017,06,22,04,48,10.80
2017,06,22,04,49,10.80
2017,06,22,04,50,10.80
2017,06,22,04,51,10.80
2017,06,22,04,52,10.80
2017,06,22,04,53,10.80
2017,06,22,04,54,10.80
2017,06,22,04,55,10.80
2017,06,22,04,56,10.80
2017,06,22,04,57,10.80
2017,06,22,04,58,10.80
2017,06,22,04,59,10.80
2017,06,22,05,00,10.80
2017,06,22,05,01,10.80
2017,06,22,05,02,10.80
2017,06,22,05,03,10.80
2017,06,22,05,04,10.80
2017,06,22,05,05,10.70
2017,06,22,05,06,10.70
2017,06,22,05,07,10.70
2017,06,22,05,08,10.70
2017,06,22,05,09,10.70
2017,06,22,05,10,10.70
2017,06,22,05,11,10.70
2017,06,22,05,12,10.70
2017,06,22,05,13,10.70
2017,06,22,05,14,10.60
2017,06,22,05,15,10.60
2017,06,22,05,16,10.60
2017,06,22,05,17,10.60
2017,06,22,05,18,10.60
2017,06,22,05,19,10.60
2017,06,22,05,20,10.50
2017,06,22,05,21,10.50
2017,06,22,05,22,10.40
2017,06,22,05,23,10.40
2017,06,22,05,24,10.40
2017,06,22,05,25,10.30
2017,06,22,05,26,10.30
2017,06,22,05,27,10.30
2017,06,22,05,28,10.30
2017,06,22,05,29,10.20
2017,06,22,05,30,10.20
2017,06,22,05,31,10.20
2017,06,22,05,32,10.10
2017,06,22,05,33,10.10
2017,06,22,05,34,10.10
2017,06,22,05,35,10.10
2017,06,22,05,36,10.00
2017,06,22,05,37,10.00
2017,06,22,05,38,9.90
2017,06,22,05,39,9.90
2017,06,22,05,40,9.90
2017,06,22,05,41,9.90
2017,06,22,05,42,9.80
2017,06,22,05,43,9.80
2017,06,22,05,44,9.80
2017,06,22,05,45,9.80
2017,06,22,05,46,9.80
2017,06,22,05,47,9.80
2017,06,22,05,48,9.80
2017,06,22,05,49,9.80
2017,06,22,05,50,9.80
2017,06,22,05,51,9.80
2017,06,22,05,52,9.80
2017,06,22,05,53,9.80
2017,06,22,05,54,9.80
2017,06,22,05,55,9.90
2017,06,22,05,56,9.90
2017,06,22,05,57,9.90
2017,06,22,05,58,9.90
2017,06,22,05,59,10.00
2017,06,22,06,00,10.00
2017,06,22,06,01,10.00
2017,06,22,06,02,10.00
2017,06,22,06,03,10.00
2017,06,22,06,04,10.20
2017,06,22,06,05,10.20
2017,06,22,06,06,10.20
2017,06,22,06,07,10.30
2017,06,22,06,08,10.30
2017,06,22,06,09,10.30
2017,06,22,06,10,10.30
2017,06,22,06,11,10.30
2017,06,22,06,12,10.30
2017,06,22,06,13,10.30
2017,06,22,06,14,10.40
2017,06,22,06,15,10.40
2017,06,22,06,16,10.40
2017,06,22,06,17,10.40
2017,06,22,06,18,10.50
2017,06,22,06,19,10.50
2017,06,22,06,20,10.50
2017,06,22,06,21,10.60
2017,06,22,06,22,10.70
2017,06,22,06,23,10.70
2017,06,22,06,24,10.70
2017,06,22,06,25,10.80
2017,06,22,06,26,10.80
2017,06,22,06,27,10.90
2017,06,22,06,28,10.90
2017,06,22,06,29,11.00
2017,06,22,06,30,11.10
2017,06,22,06,31,11.10
2017,06,22,06,32,11.20
2017,06,22,06,33,11.20
2017,06,22,06,34,11.20
2017,06,22,06,35,11.30
2017,06,22,06,36,11.30
2017,06,22,06,37,11.30
2017,06,22,06,38,11.30
2017,06,22,06,39,11.30
2017,06,22,06,40,11.30
2017,06,22,06,41,11.40
2017,06,22,06,42,11.40
2017,06,22,06,43,11.40
2017,06,22,06,44,11.40
2017,06,22,06,45,11.50
2017,06,22,06,46,11.50
2017,06,22,06,47,11.50
2017,06,22,06,48,11.60
2017,06,22,06,49,11.60
2017,06,22,06,50,11.60
2017,06,22,06,51,11.70
2017,06,22,06,52,11.70
2017,06,22,06,53,11.70
2017,06,22,06,54,11.80
2017,06,22,06,55,11.80
2017,06,22,06,56,11.80
2017,06,22,06,57,11.90
2017,06,22,06,58,11.90
2017,06,22,06,59,12.00
2017,06,22,07,00,12.00
2017,06,22,07,01,12.00
2017,06,22,07,02,12.00
2017,06,22,07,03,12.10
2017,06,22,07,04,12.10
2017,06,22,07,05,12.20
2017,06,22,07,06,12.20
2017,06,22,07,07,12.20
2017,06,22,07,08,12.30
2017,06,22,07,09,12.30
2017,06,22,07,10,12.30
2017,06,22,07,11,12.40
2017,06,22,07,12,12.40
2017,06,22,07,13,12.50
2017,06,22,07,14,12.50
2017,06,22,07,15,12.50
2017,06,22,07,16,12.50
2017,06,22,07,17,12.50
2017,06,22,07,18,12.60
2017,06,22,07,19,12.60
2017,06,22,07,20,12.60
2017,06,22,07,21,12.60
2017,06,22,07,22,12.60
2017,06,22,07,23,12.60
2017,06,22,07,24,12.60
2017,06,22,07,25,12.60
2017,06,22,07,26,12.70
2017,06,22,07,27,12.70
2017,06,22,07,28,12.70
2017,06,22,07,29,12.70
2017,06,22,07,30,12.80
2017,06,22,07,31,12.80
2017,06,22,07,32,12.80
2017,06,22,07,33,12.80
2017,06,22,07,34,12.90
2017,06,22,07,35,12.90
2017,06,22,07,36,12.90
2017,06,22,07,37,13.00
2017,06,22,07,38,13.00
2017,06,22,07,39,13.00
2017,06,22,07,40,13.10
2017,06,22,07,41,13.10
2017,06,22,07,42,13.10
2017,06,22,07,43,13.10
2017,06,22,07,44,13.10
2017,06,22,07,45,13.10
2017,06,22,07,46,13.10
2017,06,22,07,47,13.10
2017,06,22,07,48,13.10
2017,06,22,07,49,13.10
2017,06,22,07,50,13.10
2017,06,22,07,51,13.10
2017,06,22,07,52,13.10
2017,06,22,07,53,13.10
2017,06,22,07,54,13.10
2017,06,22,07,55,13.20
2017,06,22,07,56,13.20
2017,06,22,07,57,13.20
2017,06,22,07,58,13.20
2017,06,22,07,59,13.20
2017,06,22,08,00,13.20
2017,06,22,08,01,13.20
2017,06,22,08,02,13.30
2017,06,22,08,03,13.40
2017,06,22,08,04,13.40
2017,06,22,08,05,13.40
2017,06,22,08,06,13.50
2017,06,22,08,07,13.50
2017,06,22,08,08,13.50
2017,06,22,08,09,13.50
2017,06,22,08,10,13.40
2017,06,22,08,11,13.40
2017,06,22,08,12,13.40
2017,06,22,08,13,13.40
2017,06,22,08,14,13.50
2017,06,22,08,15,13.50
2017,06,22,08,16,13.50
2017,06,22,08,17,13.60
2017,06,22,08,18,13.60
2017,06,22,08,19,13.50
2017,06,22,08,20,13.50
2017,06,22,08,21,13.50
2017,06,22,08,22,13.60
2017,06,22,08,23,13.70
2017,06,22,08,24,13.70
2017,06,22,08,25,13.80
2017,06,22,08,26,13.80
2017,06,22,08,27,13.80
2017,06,22,08,28,13.80
2017,06,22,08,29,13.80
2017,06,22,08,30,13.80
2017,06,22,08,31,13.80
2017,06,22,08,32,13.90
2017,06,22,08,33,13.90
2017,06,22,08,34,14.00
2017,06,22,08,35,14.00
2017,06,22,08,36,14.10
2017,06,22,08,37,14.10
2017,06,22,08,38,14.10
2017,06,22,08,39,14.10
2017,06,22,08,40,14.10
2017,06,22,08,41,14.20
2017,06,22,08,42,14.30
2017,06,22,08,43,14.30
2017,06,22,08,44,14.30
2017,06,22,08,45,14.30
2017,06,22,08,46,14.30
2017,06,22,08,47,14.30
2017,06,22,08,48,14.30
2017,06,22,08,49,14.30
2017,06,22,08,50,14.30
2017,06,22,08,51,14.30
2017,06,22,08,52,14.30
2017,06,22,08,53,14.40
2017,06,22,08,54,14.40
2017,06,22,08,55,14.40
2017,06,22,08,56,14.40
2017,06,22,08,57,14.40
2017,06,22,08,58,14.40
2017,06,22,08,59,14.40
2017,06,22,09,00,14.50
2017,06,22,09,01,14.50
2017,06,22,09,02,14.60
2017,06,22,09,03,14.60
2017,06,22,09,04,14.70
2017,06,22,09,05,14.80
2017,06,22,09,06,14.80
2017,06,22,09,07,14.80
2017,06,22,09,08,14.80
2017,06,22,09,09,14.80
2017,06,22,09,10,14.90
2017,06,22,09,11,15.00
2017,06,22,09,12,15.00
2017,06,22,09,13,15.00
2017,06,22,09,14,15.00
2017,06,22,09,15,15.00
2017,06,22,09,16,15.10
2017,06,22,09,17,15.10
2017,06,22,09,18,15.10
2017,06,22,09,19,15.20
2017,06,22,09,20,15.20
2017,06,22,09,21,15.20
2017,06,22,09,22,15.30
2017,06,22,09,23,15.30
2017,06,22,09,24,15.30
2017,06,22,09,25,15.30
2017,06,22,09,26,15.40
2017,06,22,09,27,15.30
2017,06,22,09,28,15.30
2017,06,22,09,29,15.30
2017,06,22,09,30,15.30
2017,06,22,09,31,15.30
2017,06,22,09,32,15.30
2017,06,22,09,33,15.30
2017,06,22,09,34,15.40
2017,06,22,09,35,15.40
2017,06,22,09,36,15.40
2017,06,22,09,37,15.50
2017,06,22,09,38,15.50
2017,06,22,09,39,15.60
2017,06,22,09,40,15.60
2017,06,22,09,41,15.60
2017,06,22,09,42,15.70
2017,06,22,09,43,15.70
2017,06,22,09,44,15.60
2017,06,22,09,45,15.70
2017,06,22,09,46,15.70
2017,06,22,09,47,15.70
2017,06,22,09,48,15.70
2017,06,22,09,49,15.70
2017,06,22,09,50,15.70
2017,06,22,09,51,15.70
2017,06,22,09,52,15.80
2017,06,22,09,53,15.80
2017,06,22,09,54,15.80
2017,06,22,09,55,15.90
2017,06,22,09,56,16.00
2017,06,22,09,57,16.10
2017,06,22,09,58,16.10
2017,06,22,09,59,16.10
2017,06,22,10,00,16.10
2017,06,22,10,01,16.10
2017,06,22,10,02,16.10
2017,06,22,10,03,16.10
2017,06,22,10,04,16.20
2017,06,22,10,05,16.30
2017,06,22,10,06,16.40
2017,06,22,10,07,16.40
2017,06,22,10,08,16.40
2017,06,22,10,09,16.40
2017,06,22,10,10,16.40
2017,06,22,10,11,16.40
2017,06,22,10,12,16.30
2017,06,22,10,13,16.30
2017,06,22,10,14,16.40
2017,06,22,10,15,16.40
2017,06,22,10,16,16.50
2017,06,22,10,17,16.50
2017,06,22,10,18,16.50
2017,06,22,10,19,16.50
2017,06,22,10,20,16.50
2017,06,22,10,21,16.60
2017,06,22,10,22,16.60
2017,06,22,10,23,16.70
2017,06,22,10,24,16.60
2017,06,22,10,25,16.70
2017,06,22,10,26,16.70
2017,06,22,10,27,16.80
2017,06,22,10,28,16.80
2017,06,22,10,29,16.80
2017,06,22,10,30,16.80
2017,06,22,10,31,16.80
2017,06,22,10,32,16.70
2017,06,22,10,33,16.70
2017,06,22,10,34,16.60
2017,06,22,10,35,16.60
2017,06,22,10,36,16.70
2017,06,22,10,37,16.70
2017,06,22,10,38,16.70
2017,06,22,10,39,16.70
2017,06,22,10,40,16.70
2017,06,22,10,41,16.70
2017,06,22,10,42,16.70
2017,06,22,10,43,16.80
2017,06,22,10,44,16.80
2017,06,22,10,45,16.80
2017,06,22,10,46,16.80
2017,06,22,10,47,16.80
2017,06,22,10,48,16.80
2017,06,22,10,49,16.90
2017,06,22,10,50,16.90
2017,06,22,10,51,17.00
2017,06,22,10,52,17.00
2017,06,22,10,53,17.00
2017,06,22,10,54,17.00
2017,06,22,10,55,17.00
2017,06,22,10,56,17.00
2017,06,22,10,57,16.90
2017,06,22,10,58,17.00
2017,06,22,10,59,17.00
2017,06,22,11,00,16.90
2017,06,22,11,01,16.80
2017,06,22,11,02,16.80
2017,06,22,11,03,16.70
2017,06,22,11,04,16.70
2017,06,22,11,05,16.80
2017,06,22,11,06,16.80
2017,06,22,11,07,16.80
2017,06,22,11,08,16.80
2017,06,22,11,09,16.80
2017,06,22,11,10,16.70
2017,06,22,11,11,16.80
2017,06,22,11,12,16.80
2017,06,22,11,13,16.80
2017,06,22,11,14,16.80
2017,06,22,11,15,16.90
2017,06,22,11,16,16.90
2017,06,22,11,17,16.90
2017,06,22,11,18,17.00
2017,06,22,11,19,17.00
2017,06,22,11,20,17.00
2017,06,22,11,21,17.00
2017,06,22,11,22,17.00
2017,06,22,11,23,17.10
2017,06,22,11,24,17.10
2017,06,22,11,25,17.10
2017,06,22,11,26,17.20
2017,06,22,11,27,17.30
2017,06,22,11,28,17.30
2017,06,22,11,29,17.40
2017,06,22,11,30,17.50
2017,06,22,11,31,17.60
2017,06,22,11,32,17.60
2017,06,22,11,33,17.60
2017,06,22,11,34,17.50
2017,06,22,11,35,17.50
2017,06,22,11,36,17.50
2017,06,22,11,37,17.60
2017,06,22,11,38,17.60
2017,06,22,11,39,17.60
2017,06,22,11,40,17.60
2017,06,22,11,41,17.60
2017,06,22,11,42,17.50
2017,06,22,11,43,17.50
2017,06,22,11,44,17.50
2017,06,22,11,45,17.60
2017,06,22,11,46,17.60
2017,06,22,11,47,17.60
2017,06,22,11,48,17.60
2017,06,22,11,49,17.60
2017,06,22,11,50,17.60
2017,06,22,11,51,17.60
2017,06,22,11,52,17.60
2017,06,22,11,53,17.60
2017,06,22,11,54,17.60
2017,06,22,11,55,17.80
2017,06,22,11,56,17.90
2017,06,22,11,57,17.90
2017,06,22,11,58,17.90
2017,06,22,11,59,17.80
2017,06,22,12,00,17.80
2017,06,22,12,01,17.70
2017,06,22,12,02,17.50
2017,06,22,12,03,17.50
2017,06,22,12,04,17.40
2017,06,22,12,05,17.30
2017,06,22,12,06,17.30
2017,06,22,12,07,17.30
2017,06,22,12,08,17.30
2017,06,22,12,09,17.30
2017,06,22,12,10,17.30
2017,06,22,12,11,17.30
2017,06,22,12,12,17.30
2017,06,22,12,13,17.30
2017,06,22,12,14,17.30
2017,06,22,12,15,17.30
2017,06,22,12,16,17.30
2017,06,22,12,17,17.30
2017,06,22,12,18,17.40
2017,06,22,12,19,17.40
2017,06,22,12,20,17.40
2017,06,22,12,21,17.50
2017,06,22,12,22,17.50
2017,06,22,12,23,17.60
2017,06,22,12,24,17.60
2017,06,22,12,25,17.60
2017,06,22,12,26,17.40
2017,06,22,12,27,17.30
2017,06,22,12,28,17.30
2017,06,22,12,29,17.30
2017,06,22,12,30,17.30
2017,06,22,12,31,17.20
2017,06,22,12,32,17.20
2017,06,22,12,33,17.20
2017,06,22,12,34,17.20
2017,06,22,12,35,17.30
2017,06,22,12,36,17.30
2017,06,22,12,37,17.30
2017,06,22,12,38,17.30
2017,06,22,12,39,17.30
2017,06,22,12,40,17.30
2017,06,22,12,41,17.30
2017,06,22,12,42,17.30
2017,06,22,12,43,17.40
2017,06,22,12,44,17.60
2017,06,22,12,45,17.70
2017,06,22,12,46,17.70
2017,06,22,12,47,17.70
2017,06,22,12,48,17.70
2017,06,22,12,49,17.70
2017,06,22,12,50,17.70
2017,06,22,12,51,17.80
2017,06,22,12,52,17.80
2017,06,22,12,53,17.80
2017,06,22,12,54,17.90
2017,06,22,12,55,17.90
2017,06,22,12,56,18.00
2017,06,22,12,57,18.10
2017,06,22,12,58,18.20
2017,06,22,12,59,18.30
2017,06,22,13,00,18.40
2017,06,22,13,01,18.50
2017,06,22,13,02,18.60
2017,06,22,13,03,18.70
2017,06,22,13,04,18.80
2017,06,22,13,05,18.80
2017,06,22,13,06,18.80
2017,06,22,13,07,18.80
2017,06,22,13,08,18.80
2017,06,22,13,09,18.80
2017,06,22,13,10,18.80
2017,06,22,13,11,18.90
2017,06,22,13,12,19.00
2017,06,22,13,13,19.00
2017,06,22,13,14,19.00
2017,06,22,13,15,19.00
2017,06,22,13,16,18.90
2017,06,22,13,17,18.80
2017,06,22,13,18,18.80
2017,06,22,13,19,18.80
2017,06,22,13,20,18.70
2017,06,22,13,21,18.70
2017,06,22,13,22,18.70
2017,06,22,13,23,18.70
2017,06,22,13,24,18.80
2017,06,22,13,25,18.90
2017,06,22,13,26,19.00
2017,06,22,13,27,19.10
2017,06,22,13,28,19.00
2017,06,22,13,29,19.00
2017,06,22,13,30,18.90
2017,06,22,13,31,18.90
2017,06,22,13,32,18.90
2017,06,22,13,33,18.90
2017,06,22,13,34,18.90
2017,06,22,13,35,19.00
2017,06,22,13,36,19.10
2017,06,22,13,37,19.10
2017,06,22,13,38,19.30
2017,06,22,13,39,19.40
2017,06,22,13,40,19.40
2017,06,22,13,41,19.50
2017,06,22,13,42,19.50
2017,06,22,13,43,19.60
2017,06,22,13,44,19.60
2017,06,22,13,45,19.60
2017,06,22,13,46,19.60
2017,06,22,13,47,19.70
2017,06,22,13,48,19.70
2017,06,22,13,49,19.70
2017,06,22,13,50,19.70
2017,06,22,13,51,19.70
2017,06,22,13,52,19.70
2017,06,22,13,53,19.70
2017,06,22,13,54,19.70
2017,06,22,13,55,19.70
2017,06,22,13,56,19.80
2017,06,22,13,57,19.80
2017,06,22,13,58,19.80
2017,06,22,13,59,19.90
2017,06,22,14,00,20.00
2017,06,22,14,01,20.00
2017,06,22,14,02,20.10
2017,06,22,14,03,20.20
2017,06,22,14,04,20.30
2017,06,22,14,05,20.30
2017,06,22,14,06,20.40
2017,06,22,14,07,20.30
2017,06,22,14,08,20.30
2017,06,22,14,09,20.20
2017,06,22,14,10,20.10
2017,06,22,14,11,20.00
2017,06,22,14,12,20.00
2017,06,22,14,13,19.90
2017,06,22,14,14,19.90
2017,06,22,14,15,19.90
2017,06,22,14,16,20.00
2017,06,22,14,17,20.00
2017,06,22,14,18,20.00
2017,06,22,14,19,20.00
2017,06,22,14,20,20.10
2017,06,22,14,21,20.20
2017,06,22,14,22,20.30
2017,06,22,14,23,20.30
2017,06,22,14,24,20.30
2017,06,22,14,25,20.30
2017,06,22,14,26,20.30
2017,06,22,14,27,20.30
2017,06,22,14,28,20.30
2017,06,22,14,29,20.30
2017,06,22,14,30,20.30
2017,06,22,14,31,20.30
2017,06,22,14,32,20.40
2017,06,22,14,33,20.40
2017,06,22,14,34,20.40
2017,06,22,14,35,20.30
2017,06,22,14,36,20.30
2017,06,22,14,37,20.30
2017,06,22,14,38,20.30
2017,06,22,14,39,20.30
2017,06,22,14,40,20.30
2017,06,22,14,41,20.20
2017,06,22,14,42,20.20
2017,06,22,14,43,20.20
2017,06,22,14,44,20.20
2017,06,22,14,45,20.20
2017,06,22,14,46,20.20
2017,06,22,14,47,20.20
2017,06,22,14,48,20.20
2017,06,22,14,49,20.20
2017,06,22,14,50,20.20
2017,06,22,14,51,20.20
2017,06,22,14,52,20.20
2017,06,22,14,53,20.20
2017,06,22,14,54,20.10
2017,06,22,14,55,20.10
2017,06,22,14,56,20.10
2017,06,22,14,57,20.10
2017,06,22,14,58,20.20
2017,06,22,14,59,20.20
2017,06,22,15,00,20.30
2017,06,22,15,01,20.30
2017,06,22,15,02,20.30
2017,06,22,15,03,20.30
2017,06,22,15,04,20.30
2017,06,22,15,05,20.40
2017,06,22,15,06,20.40
2017,06,22,15,07,20.40
2017,06,22,15,08,20.40
2017,06,22,15,09,20.50
2017,06,22,15,10,20.50
2017,06,22,15,11,20.60
2017,06,22,15,12,20.70
2017,06,22,15,13,20.70
2017,06,22,15,14,20.80
2017,06,22,15,15,20.80
2017,06,22,15,16,20.80
2017,06,22,15,17,20.80
2017,06,22,15,18,20.90
2017,06,22,15,19,20.90
2017,06,22,15,20,21.00
2017,06,22,15,21,21.00
2017,06,22,15,22,21.10
2017,06,22,15,23,21.10
2017,06,22,15,24,21.00
2017,06,22,15,25,21.00
2017,06,22,15,26,20.90
2017,06,22,15,27,20.90
2017,06,22,15,28,20.90
2017,06,22,15,29,20.80
2017,06,22,15,30,20.80
2017,06,22,15,31,20.80
2017,06,22,15,32,20.90
2017,06,22,15,33,20.80
2017,06,22,15,34,20.80
2017,06,22,15,35,20.70
2017,06,22,15,36,20.70
2017,06,22,15,37,20.70
2017,06,22,15,38,20.70
2017,06,22,15,39,20.70
2017,06,22,15,40,20.80
2017,06,22,15,41,20.90
2017,06,22,15,42,21.00
2017,06,22,15,43,21.10
2017,06,22,15,44,21.20
2017,06,22,15,45,21.30
2017,06,22,15,46,21.20
2017,06,22,15,47,21.20
2017,06,22,15,48,21.20
2017,06,22,15,49,21.20
2017,06,22,15,50,21.10
2017,06,22,15,51,21.20
2017,06,22,15,52,21.20
2017,06,22,15,53,21.30
2017,06,22,15,54,21.30
2017,06,22,15,55,21.40
2017,06,22,15,56,21.40
2017,06,22,15,57,21.50
2017,06,22,15,58,21.50
2017,06,22,15,59,21.40
2017,06,22,16,00,21.30
2017,06,22,16,01,21.30
2017,06,22,16,02,21.20
2017,06,22,16,03,21.10
2017,06,22,16,04,21.00
2017,06,22,16,05,20.90
2017,06,22,16,06,20.90
2017,06,22,16,07,20.90
2017,06,22,16,08,20.80
2017,06,22,16,09,20.90
2017,06,22,16,10,20.90
2017,06,22,16,11,20.90
2017,06,22,16,12,20.90
2017,06,22,16,13,21.00
2017,06,22,16,14,21.00
2017,06,22,16,15,21.10
2017,06,22,16,16,21.20
2017,06,22,16,17,21.20
2017,06,22,16,18,21.30
2017,06,22,16,19,21.40
2017,06,22,16,20,21.40
2017,06,22,16,21,21.40
2017,06,22,16,22,21.40
2017,06,22,16,23,21.40
2017,06,22,16,24,21.50
2017,06,22,16,25,21.50
2017,06,22,16,26,21.60
2017,06,22,16,27,21.70
2017,06,22,16,28,21.70
2017,06,22,16,29,21.70
2017,06,22,16,30,21.60
2017,06,22,16,31,21.60
2017,06,22,16,32,21.60
2017,06,22,16,33,21.60
2017,06,22,16,34,21.60
2017,06,22,16,35,21.60
2017,06,22,16,36,21.60
2017,06,22,16,37,21.70
2017,06,22,16,38,21.70
2017,06,22,16,39,21.80
2017,06,22,16,40,21.80
2017,06,22,16,41,21.90
2017,06,22,16,42,22.00
2017,06,22,16,43,22.10
2017,06,22,16,44,22.10
2017,06,22,16,45,22.10
2017,06,22,16,46,22.10
2017,06,22,16,47,22.10
2017,06,22,16,48,22.20
2017,06,22,16,49,22.20
2017,06,22,16,50,22.20
2017,06,22,16,51,22.30
2017,06,22,16,52,22.30
2017,06,22,16,53,22.30
2017,06,22,16,54,22.30
2017,06,22,16,55,22.40
2017,06,22,16,56,22.40
2017,06,22,16,57,22.40
2017,06,22,16,58,22.40
2017,06,22,16,59,22.50
2017,06,22,17,00,22.50
2017,06,22,17,01,22.50
2017,06,22,17,02,22.50
2017,06,22,17,03,22.50
2017,06,22,17,04,22.40
2017,06,22,17,05,22.40
2017,06,22,17,06,22.40
2017,06,22,17,07,22.40
2017,06,22,17,08,22.40
2017,06,22,17,09,22.40
2017,06,22,17,10,22.40
2017,06,22,17,11,22.40
2017,06,22,17,12,22.40
2017,06,22,17,13,22.50
2017,06,22,17,14,22.50
2017,06,22,17,15,22.50
2017,06,22,17,16,22.60
2017,06,22,17,17,22.60
2017,06,22,17,18,22.60
2017,06,22,17,19,22.60
2017,06,22,17,20,22.60